This is the latest recevied weather packets stored in our database for station/object W9WRP. If no packets are shown the sender has not sent any weather packets the latest 10 day(s).
| Time | Temp. | Humidity | Pressure | Rain* | Wind** | Luminosity | Snow |
|---|---|---|---|---|---|---|---|
| 1788012423 | 33.33° C | 40% | 1014.6 hPa | 0 mm | - | 36 W/m² | - |
| 1788012122 | 33.33° C | 40% | 1014.8 hPa | 0 mm | - | 52 W/m² | - |
| 1788011817 | 33.33° C | 40% | 1014.4 hPa | 0 mm | - | 29 W/m² | - |
| 1788011515 | 32.78° C | 40% | 1014.4 hPa | 0 mm | - | 40 W/m² | - |
| 1788011211 | 32.78° C | 40% | 1014.5 hPa | 0 mm | - | 21 W/m² | - |
| 1788010910 | 32.78° C | 40% | 1014.3 hPa | 0 mm | - | 24 W/m² | - |
| 1788010609 | 32.22° C | 39% | 1014.3 hPa | 0 mm | - | 22 W/m² | - |
| 1788010308 | 32.22° C | 38% | 1014.2 hPa | 0 mm | - | 18 W/m² | - |
| 1788010003 | 31.67° C | 37% | 1014.4 hPa | 0 mm | - | 15 W/m² | - |
| 1788009702 | 31.67° C | 37% | 1014.2 hPa | 0 mm | - | 12 W/m² | - |
| 1788009401 | 31.67° C | 38% | 1014.4 hPa | 0 mm | - | 9 W/m² | - |
| 1788009096 | 31.67° C | 38% | 1014.2 hPa | 0 mm | - | 6 W/m² | - |
| 1788008792 | 31.67° C | 38% | 1014.3 hPa | 0 mm | - | 4 W/m² | - |
| 1788008491 | 32.22° C | 37% | 1014.2 hPa | 0 mm | - | 2 W/m² | - |
| 1788008188 | 32.22° C | 36% | 1014.1 hPa | 0 mm | - | 1 W/m² | - |
| 1788007887 | 32.22° C | 36% | 1014.2 hPa | 0 mm | - | 0 W/m² | - |
| 1788007581 | 31.67° C | 36% | 1013.9 hPa | 0 mm | - | 0 W/m² | - |
| 1788007280 | 31.67° C | 36% | 1013.9 hPa | 0 mm | - | 0 W/m² | - |
| 1788006975 | 31.67° C | 34% | 1013.9 hPa | 0 mm | - | 0 W/m² | - |
| 1788006669 | 31.67° C | 34% | 1013.9 hPa | 0 mm | - | 0 W/m² | - |
| 1788006364 | 31.67° C | 34% | 1013.9 hPa | 0 mm | - | 0 W/m² | - |
| 1788006062 | 32.22° C | 35% | 1014 hPa | 0 mm | - | 0 W/m² | - |
| 1788005762 | 31.67° C | 35% | 1013.8 hPa | 0 mm | - | 0 W/m² | - |
| 1788005457 | 31.67° C | 36% | 1013.7 hPa | 0 mm | - | 0 W/m² | - |
| 1788005155 | 31.67° C | 35% | 1013.6 hPa | 0 mm | - | 0 W/m² | - |
* Rain latest hour (hover to see other rain measurements)
** Current wind speed in m/s (hover to see current wind gust speed)